Miscellaneous Local Product
Issued by NWS North Platte, NE

Home | Current Version | Previous Version | Text Only | Print | Product List | Glossary On
Versions: 1 2 3 4 5 6 7 8 9 10 11 12 13 14 15 16 17 18 19 20 21 22 23 24 25 26 27 28 29 30 31 32 33 34 35 36 37 38 39 40 41 42 43 44 45 46 47 48 49 50
000
AXUS43 KLBF 212010
MISLBF


WESTERN AND NORTH CENTRAL NEBRASKA HOURLY WEATHER ROUNDUP
NATIONAL WEATHER SERVICE NORTH PLATTE NE
300 PM CDT TUE OCT 21 2014

***STATIONS NOT REPORTING VARIABLES SUCH AS SKY/WEATHER OR
PRESSURE ARE PROVIDED BY THE NEBRASKA DEPARTMENT OF
ROADS...RAWS...AND APRS NETWORKS...AND ARE NOT UNDER
NATIONAL WEATHER SERVICE QUALITY CONTROL***

...OBSERVATIONS IN AND NEAR THE EASTERN PANHANDLE OF NEBRASKA...

CITY           SKY/WX    TMP DP  RH WIND       PRES   REMARKS
PINE RIDGE     SUNNY     78  48  34 S20       29.82F
CHADRON        PTSUNNY   83  41  22 SW16      29.80F
ALLIANCE       SUNNY     74  48  39 SE16G25   29.89F
SIDNEY         SUNNY     74  47  38 S14G22    29.92F
WHITECLAY        N/A     77  47  33 S15         N/A
RUSHVILLE        N/A     78  41  25 S18         N/A
CRESCENT LAKE    N/A     74  49  40 S12G18      N/A
LISCO            N/A     79  40  24 E17         N/A
BIG SPRINGS      N/A     73  57  57 S8          N/A
LEWELLEN         N/A     81  55  40 S16         N/A
$$

...OBSERVATIONS IN NORTH CENTRAL NEBRASKA...

CITY           SKY/WX    TMP DP  RH WIND       PRES   REMARKS
VALENTINE      SUNNY     78  46  32 S21G32    29.88F
THEDFORD       SUNNY     76  53  44 S23G30    29.93F
AINSWORTH      SUNNY     76  34  21 S28       29.91F
O`NEILL        SUNNY     78  41  26 S21G28    29.96F
ORD            SUNNY     76  36  23 S21G26    29.96F
BROKEN BOW     SUNNY     76  45  33 S21G26    29.97F
BROWNLEE         N/A     78  49  35 S26         N/A
SPRINGVIEW       N/A     78  38  23 S15G24      N/A
BREWSTER         N/A     80  40  24 S23         N/A
ROSE             N/A     78  40  24 SE23        N/A
NEWPORT          N/A     78  36  21 S18         N/A
SARGENT          N/A     75  38  26 S6G15       N/A
COMSTOCK         N/A     81  42  24 S18         N/A
CHAMBERS         N/A     75  42  31 S18         N/A
$$

...OBSERVATIONS IN SOUTHWEST NEBRASKA AND FAR NORTHEAST COLORADO...

CITY           SKY/WX    TMP DP  RH WIND       PRES   REMARKS
WRAY           FAIR      82  40  22 S20G28    29.92F
HOLYOKE        FAIR      84  37  18 S16G26    29.90F
IMPERIAL       SUNNY     78  46  32 S21G30    29.92F
OGALLALA       SUNNY     78  53  41 S16G25    29.91F
NORTH PLATTE   SUNNY     76  53  44 S20G32    29.92F
MCCOOK         SUNNY     80  55  42 S21G30    29.95F
LEXINGTON      SUNNY     76  57  51 S18G24    29.97F
PAXTON           N/A     74  57  54 S20         N/A
SUTHERLAND       N/A     80  56  44 S17         N/A
BRADY            N/A     75  57  54 CALM        N/A
GOTHENBURG       N/A     72  53  50 SE15        N/A
CALLAWAY         N/A     73  51  45 S18         N/A
$$

...SOME WEATHER OBSERVATIONS FROM AROUND THE REGION...

CITY           SKY/WX    TMP DP  RH WIND       PRES   REMARKS
DENVER         MOSUNNY   77  33  20 VRB3      29.94F
LARAMIE        LGT RAIN  59  37  44 SW21G28   30.04F
CHEYENNE       MOSUNNY   70  32  24 SW14      29.97F
SCOTTSBLUFF    MOSUNNY   73  46  38 SE14      29.87F
RAPID CITY     SUNNY     82  44  26 S17       29.75F
PIERRE         SUNNY     84  39  20 S28G36    29.77F
WINNER         FAIR      82  37  20 S26G39    29.85F
SIOUX FALLS    SUNNY     73  44  35 S20G25    29.98F
OMAHA          SUNNY     73  40  30 S10       30.05F
GRAND ISLAND   SUNNY     77  35  21 S20G28    30.01F
KANSAS CITY    SUNNY     72  43  35 S6        30.09F
WICHITA        MOSUNNY   80  58  46 SE10      30.03F
HAYS           SUNNY     77  59  53 SE13G18   30.00F
LIBERAL        PTSUNNY   79  52  38 S17       30.03F
GOODLAND       SUNNY     78  51  38 S20G28    29.96F
$$



USA.gov is the U.S. government's official web portal to all federal, state and local government web resources and services.